Starlink 32106

operational
NORAD ID: 59690 Int'l Des: 2024-086 Owner: SPXS Country: US Constellation: starlink
LEOCIRCULAR

About Starlink 32106

Description loading...

Live Position

Loading 3D Globe...

Upcoming Passes

Altitude History

Altitude vs Time

uPlot chart will show altitude changes over time

Two-Line Element Set

1 59690U 24086J 25346.94161548 -.00000973 00000-0 -25828-4 0 9997
2 59690 43.0041 182.1538 0002591 248.8550 111.2025 15.27561282 90932
Epoch: Dec 12, 2025 • Age: 9 hours

Current Status

Altitude 483.2 km
Velocity 7.63 km/s
Sub-Earth Point 3.70°N, 18.95°W
Launch Date May 8, 2024
Age 1.5 years
Type internet

Technical Details

Classification Payload
Mass 730.00 kg
Dry Mass 700.00 kg
Total Mass 730.00 kg
Length 0.30 m
Diameter 4.10 m
Span 29.00 m
Shape Box + pan
Manufacturer SPXS
Bus Type Starlink V2M
Phase Status In Orbit
Owner/State SPXS/US

Large Constellations

Loading constellations...